• In Uzbekistan
  • List of Countries
  • For 7 days
  • Water Temperature
  • Weather Map
  • Weather Widgets
  • user-avatar
    Login

    Hourly Weather Cam Ranh

    Today, 16 September, Monday

    Time Temperature Precipitation Wind Pressure Humidity
    00:00 +27°C° 0 mm 2 mps 751 mmHg 89%
    01:00 +27°C° 0 mm 1 mps 751 mmHg 87%
    02:00 +27°C° 0 mm 1 mps 751 mmHg 86%
    03:00 +27°C° 0 mm 1 mps 751 mmHg 85%
    04:00 +24°C° 0 mm 0 mps 750 mmHg 85%
    05:00 +25°C° 0 mm 0 mps 751 mmHg 83%
    06:00 +27°C° 0 mm 1 mps 751 mmHg 81%
    07:00 +28°C° 0 mm 1 mps 752 mmHg 80%
    08:00 +29°C° 0 mm 1 mps 752 mmHg 75%
    09:00 +30°C° 0 mm 1 mps 751 mmHg 70%
    10:00 +31°C° 0 mm 1 mps 751 mmHg 66%
    11:00 +31°C° 0.1 mm 2 mps 751 mmHg 68%
    12:00 +31°C° 0.1 mm 3 mps 750 mmHg 71%
    13:00 +31°C° 0.1 mm 3 mps 750 mmHg 74%
    14:00 +31°C° 0.5 mm 3 mps 749 mmHg 75%
    15:00 +30°C° 0.5 mm 3 mps 749 mmHg 76%
    16:00 +30°C° 0.5 mm 3 mps 749 mmHg 78%
    17:00 +29°C° 1 mm 3 mps 749 mmHg 80%
    18:00 +29°C° 1 mm 3 mps 750 mmHg 83%
    19:00 +28°C° 1 mm 3 mps 750 mmHg 86%
    20:00 +28°C° 0.7 mm 3 mps 751 mmHg 86%
    21:00 +28°C° 0.7 mm 3 mps 751 mmHg 87%
    22:00 +28°C° 0.7 mm 3 mps 752 mmHg 87%
    23:00 +27°C° 1.6 mm 3 mps 751 mmHg 88%

    Tomorrow, 17 September, Tuesday

    Time Temperature Precipitation Wind Pressure Humidity
    00:00 +27°C° 1.6 mm 3 mps 751 mmHg 89%
    01:00 +27°C° 1.6 mm 3 mps 750 mmHg 90%
    02:00 +27°C° 0.7 mm 3 mps 750 mmHg 90%
    03:00 +27°C° 0.7 mm 2 mps 750 mmHg 90%
    04:00 +27°C° 0.7 mm 2 mps 750 mmHg 90%
    05:00 +27°C° 0.1 mm 2 mps 751 mmHg 90%
    06:00 +27°C° 0.1 mm 1 mps 751 mmHg 89%
    07:00 +27°C° 0.1 mm 1 mps 752 mmHg 88%
    08:00 +28°C° 0 mm 1 mps 752 mmHg 83%
    09:00 +29°C° 0 mm 1 mps 752 mmHg 78%
    10:00 +30°C° 0 mm 1 mps 752 mmHg 74%
    11:00 +30°C° 0.4 mm 1 mps 752 mmHg 75%
    12:00 +30°C° 0.4 mm 2 mps 751 mmHg 77%
    13:00 +30°C° 0.4 mm 2 mps 750 mmHg 79%
    14:00 +30°C° 0.3 mm 2 mps 750 mmHg 80%
    15:00 +29°C° 0.3 mm 2 mps 750 mmHg 81%
    16:00 +29°C° 0.3 mm 2 mps 750 mmHg 82%
    17:00 +29°C° 0.3 mm 1 mps 750 mmHg 83%
    18:00 +29°C° 0.3 mm 1 mps 751 mmHg 83%
    19:00 +26°C° 0.3 mm 0 mps 751 mmHg 84%
    20:00 +28°C° 0.4 mm 1 mps 752 mmHg 85%
    21:00 +28°C° 0.4 mm 1 mps 752 mmHg 85%
    22:00 +28°C° 0.4 mm 2 mps 753 mmHg 85%
    23:00 +28°C° 1.1 mm 2 mps 752 mmHg 87%

    Day after tomorrow, 18 September, Wednesday

    Time Temperature Precipitation Wind Pressure Humidity
    00:00 +28°C° 1.1 mm 2 mps 752 mmHg 88%
    01:00 +27°C° 1.1 mm 2 mps 751 mmHg 89%
    02:00 +27°C° 2.1 mm 2 mps 751 mmHg 90%
    03:00 +27°C° 2.1 mm 3 mps 751 mmHg 91%
    04:00 +27°C° 2.1 mm 3 mps 751 mmHg 92%
    05:00 +27°C° 2.1 mm 3 mps 751 mmHg 92%
    06:00 +26°C° 2.1 mm 2 mps 752 mmHg 91%
    07:00 +26°C° 2.1 mm 2 mps 752 mmHg 91%
    08:00 +27°C° 0.3 mm 2 mps 752 mmHg 90%
    09:00 +27°C° 0.3 mm 2 mps 752 mmHg 89%
    10:00 +28°C° 0.3 mm 2 mps 753 mmHg 87%
    11:00 +28°C° 0.2 mm 2 mps 752 mmHg 87%
    12:00 +28°C° 0.2 mm 3 mps 752 mmHg 86%
    13:00 +29°C° 0.2 mm 3 mps 751 mmHg 85%
    14:00 +29°C° 0.9 mm 4 mps 751 mmHg 86%
    15:00 +29°C° 0.9 mm 4 mps 751 mmHg 88%
    16:00 +29°C° 0.9 mm 5 mps 751 mmHg 89%
    17:00 +28°C° 1.2 mm 4 mps 751 mmHg 89%
    18:00 +28°C° 1.2 mm 4 mps 752 mmHg 90%
    19:00 +27°C° 1.2 mm 4 mps 752 mmHg 91%
    20:00 +27°C° 1 mm 5 mps 753 mmHg 91%
    21:00 +27°C° 1 mm 5 mps 753 mmHg 92%
    22:00 +27°C° 1 mm 5 mps 754 mmHg 92%
    23:00 +27°C° 1.5 mm 5 mps 753 mmHg 92%

    19 September, Thursday

    Time Temperature Precipitation Wind Pressure Humidity
    00:00 +27°C° 1.5 mm 5 mps 753 mmHg 92%
    01:00 +27°C° 1.5 mm 5 mps 752 mmHg 92%
    02:00 +27°C° 0.4 mm 4 mps 752 mmHg 92%
    03:00 +26°C° 0.4 mm 3 mps 752 mmHg 92%
    04:00 +26°C° 0.4 mm 2 mps 752 mmHg 91%
    05:00 +26°C° 0.6 mm 2 mps 753 mmHg 91%
    06:00 +26°C° 0.6 mm 2 mps 753 mmHg 91%
    07:00 +26°C° 0.6 mm 2 mps 753 mmHg 91%
    08:00 +27°C° 0.1 mm 2 mps 753 mmHg 88%
    09:00 +28°C° 0.1 mm 1 mps 753 mmHg 85%
    10:00 +28°C° 0.1 mm 1 mps 753 mmHg 82%
    11:00 +28°C° 0 mm 1 mps 753 mmHg 82%
    12:00 +28°C° 0 mm 1 mps 752 mmHg 83%
    13:00 +28°C° 0 mm 1 mps 752 mmHg 83%
    14:00 +28°C° 0 mm 1 mps 752 mmHg 83%
    15:00 +28°C° 0 mm 1 mps 751 mmHg 83%
    16:00 +28°C° 0 mm 1 mps 751 mmHg 83%
    17:00 +28°C° 0 mm 1 mps 751 mmHg 84%
    18:00 +28°C° 0 mm 1 mps 752 mmHg 85%
    19:00 +28°C° 0 mm 1 mps 752 mmHg 85%
    20:00 +28°C° 0 mm 2 mps 753 mmHg 84%
    21:00 +28°C° 0 mm 2 mps 753 mmHg 83%
    22:00 +28°C° 0 mm 2 mps 754 mmHg 82%
    23:00 +28°C° 0 mm 2 mps 753 mmHg 81%

    20 September, Friday

    Time Temperature Precipitation Wind Pressure Humidity
    00:00 +28°C° 0 mm 2 mps 753 mmHg 79%
    01:00 +27°C° 0 mm 2 mps 752 mmHg 78%
    02:00 +27°C° 0 mm 1 mps 752 mmHg 77%
    03:00 +27°C° 0 mm 1 mps 752 mmHg 76%
    04:00 +27°C° 0 mm 1 mps 751 mmHg 76%
    05:00 +28°C° 0 mm 1 mps 752 mmHg 75%
    06:00 +28°C° 0 mm 1 mps 752 mmHg 74%
    07:00 +26°C° 0 mm 0 mps 752 mmHg 73%
    08:00 +29°C° 0 mm 1 mps 752 mmHg 71%
    09:00 +30°C° 0 mm 1 mps 753 mmHg 68%
    10:00 +31°C° 0 mm 1 mps 753 mmHg 65%
    11:00 +31°C° 0.3 mm 1 mps 752 mmHg 69%
    12:00 +31°C° 0.3 mm 2 mps 751 mmHg 72%
    13:00 +31°C° 0.3 mm 2 mps 751 mmHg 75%
    14:00 +30°C° 0.8 mm 2 mps 750 mmHg 77%
    15:00 +30°C° 0.8 mm 2 mps 750 mmHg 80%
    16:00 +30°C° 0.8 mm 2 mps 750 mmHg 82%
    17:00 +29°C° 0.4 mm 2 mps 751 mmHg 82%
    18:00 +29°C° 0.4 mm 1 mps 751 mmHg 83%
    19:00 +29°C° 0.4 mm 1 mps 751 mmHg 83%
    20:00 +28°C° 0.1 mm 1 mps 752 mmHg 84%
    21:00 +28°C° 0.1 mm 1 mps 752 mmHg 84%
    22:00 +28°C° 0.1 mm 1 mps 753 mmHg 84%
    23:00 +28°C° 1.1 mm 2 mps 752 mmHg 86%

    21 September, Saturday

    Time Temperature Precipitation Wind Pressure Humidity
    00:00 +28°C° 1.1 mm 3 mps 752 mmHg 87%
    01:00 +27°C° 1.1 mm 4 mps 751 mmHg 89%
    02:00 +27°C° 0.4 mm 3 mps 751 mmHg 89%
    03:00 +27°C° 0.4 mm 3 mps 751 mmHg 90%
    04:00 +27°C° 0.4 mm 3 mps 751 mmHg 91%
    05:00 +27°C° 0 mm 2 mps 751 mmHg 89%
    06:00 +27°C° 0 mm 1 mps 752 mmHg 88%
    07:00 +27°C° 0 mm 1 mps 752 mmHg 87%
    08:00 +28°C° 0 mm 1 mps 752 mmHg 82%
    09:00 +29°C° 0 mm 1 mps 752 mmHg 78%
    10:00 +30°C° 0 mm 1 mps 752 mmHg 73%
    11:00 +30°C° 0.2 mm 1 mps 752 mmHg 74%
    12:00 +30°C° 0.2 mm 2 mps 751 mmHg 75%
    13:00 +31°C° 0.2 mm 3 mps 751 mmHg 76%
    14:00 +30°C° 1.7 mm 2 mps 750 mmHg 81%
    15:00 +29°C° 1.7 mm 2 mps 750 mmHg 85%
    16:00 +27°C° 1.7 mm 2 mps 750 mmHg 90%
    17:00 +27°C° 1.6 mm 2 mps 751 mmHg 90%
    18:00 +27°C° 1.6 mm 1 mps 751 mmHg 90%
    19:00 +27°C° 1.6 mm 1 mps 752 mmHg 90%
    20:00 +26°C° 1.1 mm 1 mps 753 mmHg 91%
    21:00 +26°C° 1.1 mm 2 mps 753 mmHg 91%
    22:00 +26°C° 1.1 mm 2 mps 754 mmHg 92%
    23:00 +26°C° 0.9 mm 2 mps 753 mmHg 92%
    Show more